Location: Malvern Link
(52.1333°N, 2.3000°W)
Time: 16:27:37
(UTC+00:00)

Cosmos 1634 Rocket - Pass Details

Date: 30 November 2021
Orbit: 959 x 993 km, 82.9° (Epoch: 23 January)

Event Time Altitude Azimuth Distance (km) Brightness Sun altitude
Rises 04:02:40 0° 353° (N) 3,718 7.1 -34.5°
Reaches altitude 10° 04:05:32 10° 3° (N) 2,761 6.5 -34.1°
Maximum altitude 04:11:06 32° 65° (ENE) 1,641 5.6 -33.2°
Drops below altitude 10° 04:16:37 10° 127° (SE) 2,727 6.8 -32.4°
Sets 04:19:25 0° 137° (SE) 3,664 7.5 -31.9°
